Powrót do katalogu

OPS 0856 DEB

LostPO
NORAD 23821·DEBRIS·🇺🇸 United States

Wystrzelony Aug 19, 1966 z Vandenberg Space Force Base

Loading…

Następne Przeloty (najbliższe 24 godziny)

TLE

NieaktualneSource: Space-Track

Epoka: Nov 2, 2013, 21:56 UTC

1 23821U 66077E   13306.91397687  .00000027  00000-0  47769-2 0  9999
2 23821 089.4704 284.4916 1350430 330.8544 022.5549 08.70867560493197

Śledź OPS 0856 DEB w czasie rzeczywistym z AllMySat

Download on the App Store